Location: Cosy Dell
(34.2789°N, 117.4537°W)
Time: 11:55:27
(UTC+00:00)

SL-16 R/B - Pass Details

Date: 14 July 2020
Orbit: 985 x 1006 km, 99.5° (Epoch: 09 August)

Event Time Altitude Azimuth Distance (km) Brightness Sun altitude
Exits shadow 08:57:23 35° 97° (E) 1,562 3.5 -32.3°
Maximum altitude 08:58:45 39° 69° (ENE) 1,457 3.6 -32.2°
Drops below altitude 10° 09:04:29 10° 3° (N) 2,785 5.7 -31.8°
Sets 09:07:07 0° 356° (N) 3,740 6.5 -31.6°
